User: anonymous   Login
Location: Cantaing
(50.1487°N, 3.1675°E)
Time: 13:13:47
(UTC+00:00)
Language:

Cosmos 540 Rocket - Orbit

View from above orbital plane
View from above orbital plane
View from above satellite
View from above satellite

Ground track
Ground track

The orbit is defined by the following mean orbital elements,

1 06324U          26073.06482409 +.00000000 +00000-0 +94733-4 0 00009
2 06324  74.0765 306.1142 0008768 336.6817  23.3942 14.45283001    07
Epoch (UTC): 14 March 2026 01:33:20
Eccentricity: 0.0008768
inclination: 74.0765°
perigee height: 735 km
apogee height: 747 km
right ascension of ascending node: 306.1142°
argument of perigee: 336.6817°
revolutions per day: 14.45283001
mean anomaly at epoch: 23.3942°

The dashed part of the orbit path shows where the satellite is in the earth's shadow,  

DLR